HLJ4013 LKMT-LGZA

Flight info

Callsign HLJ4013
Flight time 1h 59m
Altitude 35000
Route BILNA L617 NIDOK DCT BALAP DCT PARAK DCT REDVA UL616 KOGAT DCT BITLA UN731 YNN UT352 ASTUS
Aircraft B738/M-VGDW/C

Departure

Time 2026-04-30 08:09
Airport Leoš Janáček Airport Ostrava (LKMT)

Arrival

Time 2026-04-30 10:09
Airport Zakynthos International Airport Dionysios Solomos (LGZA)
Time Latitude Longitude Altitude Speed Heading
2026-04-30 06:34 49.69587 18.12020 825 ft 0 kts 135°
2026-04-30 07:59 49.69595 18.12006 819 ft 2 kts 135°
2026-04-30 07:59 49.69607 18.11988 814 ft 2 kts 137°
2026-04-30 08:00 49.69636 18.11967 819 ft 2 kts 194°
2026-04-30 08:00 49.69645 18.11972 820 ft 1 kts 219°
2026-04-30 08:03 49.69629 18.11951 817 ft 6 kts 220°
2026-04-30 08:03 49.69602 18.11793 820 ft 9 kts 271°
2026-04-30 08:03 49.69575 18.11712 818 ft 9 kts 225°
2026-04-30 08:04 49.69532 18.11644 820 ft 10 kts 227°
2026-04-30 08:04 49.69472 18.11543 820 ft 16 kts 227°
2026-04-30 08:04 49.69380 18.11396 819 ft 22 kts 226°
2026-04-30 08:04 49.69261 18.11204 820 ft 28 kts 226°
2026-04-30 08:05 49.69125 18.10983 820 ft 28 kts 228°
2026-04-30 08:05 49.68991 18.10772 820 ft 26 kts 226°
2026-04-30 08:05 49.68871 18.10571 820 ft 25 kts 226°
2026-04-30 08:05 49.68755 18.10387 820 ft 23 kts 227°
2026-04-30 08:06 49.68644 18.10213 820 ft 22 kts 226°
2026-04-30 08:06 49.68537 18.10044 820 ft 22 kts 226°
2026-04-30 08:06 49.68434 18.09874 820 ft 21 kts 227°
2026-04-30 08:06 49.68340 18.09714 820 ft 13 kts 232°
2026-04-30 08:07 49.68357 18.09620 820 ft 10 kts 313°
2026-04-30 08:07 49.68419 18.09523 821 ft 14 kts 316°
2026-04-30 08:07 49.68470 18.09449 823 ft 0 kts 316°
2026-04-30 08:08 49.68470 18.09448 823 ft 1 kts 316°
2026-04-30 08:08 49.68494 18.09412 826 ft 8 kts 316°
2026-04-30 08:08 49.68553 18.09375 829 ft 10 kts 10°
2026-04-30 08:08 49.68576 18.09400 829 ft 0 kts 46°
2026-04-30 08:09 49.68616 18.09465 830 ft 36 kts 46°
2026-04-30 08:09 49.68974 18.10043 828 ft 110 kts 46°
2026-04-30 08:09 49.69638 18.11118 1000 ft 152 kts 44°
2026-04-30 08:09 49.70388 18.12306 1850 ft 158 kts 45°
2026-04-30 08:10 49.71164 18.13564 2785 ft 162 kts 45°
2026-04-30 08:10 49.71974 18.14884 3528 ft 181 kts 44°
2026-04-30 08:10 49.72864 18.16320 4260 ft 189 kts 45°
2026-04-30 08:10 49.73765 18.17718 5352 ft 176 kts 44°
2026-04-30 08:11 49.74657 18.19121 5997 ft 191 kts 44°
2026-04-30 08:11 49.75554 18.20771 6411 ft 216 kts 51°
2026-04-30 08:11 49.76260 18.23044 6771 ft 248 kts 75°
2026-04-30 08:11 49.76383 18.25713 7658 ft 254 kts 88°
2026-04-30 08:12 49.76211 18.28485 8503 ft 263 kts 95°
2026-04-30 08:12 49.75630 18.31201 9335 ft 276 kts 117°
2026-04-30 08:12 49.74288 18.33443 10122 ft 291 kts 140°
2026-04-30 08:12 49.72624 18.35221 11161 ft 286 kts 142°
2026-04-30 08:13 49.70736 18.36122 11914 ft 306 kts 199°
2026-04-30 08:13 49.70009 18.33412 11257 ft 321 kts 279°
2026-04-30 08:13 49.69832 18.30053 12577 ft 308 kts 253°
2026-04-30 08:13 49.68731 18.27221 13556 ft 314 kts 224°
2026-04-30 08:14 49.66857 18.25439 14291 ft 322 kts 199°
2026-04-30 08:14 49.64619 18.24834 14497 ft 341 kts 174°
2026-04-30 08:14 49.62255 18.25738 14727 ft 354 kts 151°
2026-04-30 08:14 49.60064 18.27497 15287 ft 361 kts 147°
2026-04-30 08:15 49.57841 18.29399 16038 ft 364 kts 147°
2026-04-30 08:15 49.55636 18.31292 16802 ft 367 kts 147°
2026-04-30 08:15 49.53382 18.33201 17480 ft 373 kts 147°
2026-04-30 08:15 49.51087 18.35117 18155 ft 378 kts 147°
2026-04-30 08:16 49.48747 18.37048 18832 ft 383 kts 148°
2026-04-30 08:16 49.46372 18.38996 19445 ft 386 kts 148°
2026-04-30 08:16 49.43996 18.40941 20081 ft 389 kts 147°
2026-04-30 08:16 49.41587 18.42908 20696 ft 393 kts 147°
2026-04-30 08:17 49.39182 18.44872 21294 ft 396 kts 147°
2026-04-30 08:17 49.36685 18.46792 21879 ft 402 kts 150°
2026-04-30 08:17 49.34125 18.48638 22485 ft 406 kts 150°
2026-04-30 08:17 49.31544 18.50464 23069 ft 409 kts 150°
2026-04-30 08:18 49.28947 18.52304 23662 ft 413 kts 150°
2026-04-30 08:18 49.26360 18.54148 24201 ft 416 kts 150°
2026-04-30 08:18 49.23705 18.56052 24693 ft 418 kts 150°
2026-04-30 08:18 49.21062 18.57953 25154 ft 422 kts 150°
2026-04-30 08:19 49.18422 18.59854 25598 ft 425 kts 150°
2026-04-30 08:19 49.15719 18.61798 26059 ft 428 kts 150°
2026-04-30 08:19 49.13023 18.63735 26504 ft 431 kts 150°
2026-04-30 08:19 49.10320 18.65674 26940 ft 434 kts 150°
2026-04-30 08:20 49.08472 18.66998 27236 ft 435 kts 150°
2026-04-30 08:20 49.05700 18.68984 27672 ft 438 kts 150°
2026-04-30 08:20 49.02936 18.70962 28093 ft 441 kts 150°
2026-04-30 08:20 49.00143 18.72959 28510 ft 444 kts 150°
2026-04-30 08:21 48.97347 18.74955 28886 ft 447 kts 150°
2026-04-30 08:21 48.94526 18.76966 29273 ft 449 kts 150°
2026-04-30 08:21 48.91678 18.78994 29633 ft 452 kts 150°
2026-04-30 08:21 48.88829 18.81020 30008 ft 454 kts 150°
2026-04-30 08:22 48.85926 18.82949 30369 ft 459 kts 154°
2026-04-30 08:22 48.82895 18.84656 30707 ft 462 kts 156°
2026-04-30 08:22 48.79850 18.86276 31131 ft 461 kts 157°
2026-04-30 08:22 48.76838 18.87850 31595 ft 459 kts 157°
2026-04-30 08:23 48.73825 18.89427 32014 ft 458 kts 157°
2026-04-30 08:23 48.70815 18.91017 32362 ft 458 kts 157°
2026-04-30 08:23 48.67782 18.92632 32716 ft 458 kts 157°
2026-04-30 08:23 48.64792 18.94231 33094 ft 458 kts 158°
2026-04-30 08:24 48.61811 18.95830 33478 ft 457 kts 158°
2026-04-30 08:24 48.58791 18.97450 33814 ft 457 kts 158°
2026-04-30 08:24 48.55813 18.99046 34156 ft 457 kts 158°
2026-04-30 08:24 48.52799 19.00658 34486 ft 457 kts 158°
2026-04-30 08:25 48.49780 19.02271 34748 ft 458 kts 158°
2026-04-30 08:25 48.46805 19.03858 34988 ft 459 kts 158°
2026-04-30 08:25 48.43773 19.05473 35251 ft 459 kts 158°
2026-04-30 08:25 48.40778 19.07066 35397 ft 462 kts 159°
2026-04-30 08:26 48.37730 19.08686 35382 ft 464 kts 159°
2026-04-30 08:26 48.31631 19.11919 35385 ft 460 kts 159°
2026-04-30 08:27 48.25665 19.15072 35387 ft 456 kts 159°
2026-04-30 08:27 48.19652 19.18246 35402 ft 456 kts 159°
2026-04-30 08:28 48.13657 19.21402 35391 ft 457 kts 159°
2026-04-30 08:28 48.07661 19.24551 35390 ft 458 kts 159°
2026-04-30 08:29 48.01583 19.27534 35395 ft 458 kts 161°
2026-04-30 08:29 47.95455 19.30285 35390 ft 459 kts 162°
2026-04-30 08:30 47.89339 19.33025 35387 ft 459 kts 162°
2026-04-30 08:30 47.83213 19.35800 35386 ft 459 kts 162°
2026-04-30 08:31 47.77058 19.38602 35387 ft 460 kts 162°
2026-04-30 08:31 47.70971 19.41369 35382 ft 460 kts 162°
2026-04-30 08:32 47.64817 19.44159 35393 ft 460 kts 162°
2026-04-30 08:32 47.58710 19.46920 35397 ft 461 kts 162°
2026-04-30 08:33 47.52544 19.49700 35395 ft 461 kts 162°
2026-04-30 08:33 47.46402 19.52463 35395 ft 461 kts 162°
2026-04-30 08:34 47.40298 19.55202 35394 ft 461 kts 162°
2026-04-30 08:34 47.34134 19.57961 35388 ft 462 kts 162°
2026-04-30 08:35 47.27957 19.60719 35387 ft 462 kts 162°
2026-04-30 08:35 47.21804 19.63460 35377 ft 462 kts 162°
2026-04-30 08:36 47.15677 19.66183 35378 ft 462 kts 162°
2026-04-30 08:36 47.09499 19.68922 35373 ft 462 kts 163°
2026-04-30 08:37 47.03332 19.71649 35371 ft 461 kts 163°
2026-04-30 08:37 46.97195 19.74357 35376 ft 461 kts 163°
2026-04-30 08:38 46.91045 19.77063 35376 ft 460 kts 163°
2026-04-30 08:38 46.84924 19.79751 35373 ft 459 kts 163°
2026-04-30 08:39 46.78812 19.82428 35372 ft 458 kts 163°
2026-04-30 08:39 46.72720 19.85090 35365 ft 458 kts 163°
2026-04-30 08:40 46.66586 19.87764 35361 ft 458 kts 164°
2026-04-30 08:40 46.60470 19.90424 35358 ft 458 kts 164°
2026-04-30 08:41 46.54383 19.93065 35360 ft 459 kts 164°
2026-04-30 08:41 46.48224 19.95732 35359 ft 460 kts 164°
2026-04-30 08:42 46.42100 19.98377 35358 ft 461 kts 165°
2026-04-30 08:42 46.35950 20.01026 35348 ft 461 kts 165°
2026-04-30 08:43 46.29793 20.03674 35351 ft 462 kts 165°
2026-04-30 08:43 46.23627 20.06319 35347 ft 462 kts 165°
2026-04-30 08:44 46.17472 20.08947 35345 ft 462 kts 166°
2026-04-30 08:44 46.11169 20.10477 35349 ft 458 kts 176°
2026-04-30 08:45 46.04815 20.11431 35339 ft 457 kts 176°
2026-04-30 08:45 45.98500 20.12382 35340 ft 457 kts 176°
2026-04-30 08:46 45.92142 20.13391 35334 ft 456 kts 176°
2026-04-30 08:46 45.85856 20.14414 35337 ft 456 kts 176°
2026-04-30 08:47 45.79530 20.15447 35340 ft 455 kts 176°
2026-04-30 08:47 45.73249 20.16469 35334 ft 455 kts 176°
2026-04-30 08:48 45.66948 20.17491 35333 ft 454 kts 177°
2026-04-30 08:48 45.60672 20.18506 35333 ft 454 kts 177°
2026-04-30 08:49 45.54391 20.19519 35330 ft 453 kts 177°
2026-04-30 08:49 45.48145 20.20525 35333 ft 452 kts 177°
2026-04-30 08:50 45.42945 20.21360 35328 ft 452 kts 178°
2026-04-30 08:50 45.36652 20.22369 35333 ft 451 kts 178°
2026-04-30 08:51 45.30455 20.23360 35332 ft 451 kts 178°
2026-04-30 08:51 45.24187 20.24361 35329 ft 451 kts 178°
2026-04-30 08:52 45.17945 20.25355 35324 ft 450 kts 178°
2026-04-30 08:52 45.11737 20.26341 35320 ft 450 kts 178°
2026-04-30 08:53 45.05514 20.27328 35321 ft 449 kts 179°
2026-04-30 08:53 44.99258 20.28318 35320 ft 449 kts 179°
2026-04-30 08:54 44.93061 20.29296 35318 ft 448 kts 179°
2026-04-30 08:54 44.86871 20.30271 35345 ft 448 kts 179°
2026-04-30 08:55 44.80695 20.31242 35344 ft 448 kts 179°
2026-04-30 08:55 44.74506 20.32213 35344 ft 447 kts 179°
2026-04-30 08:56 44.68309 20.33182 35339 ft 448 kts 179°
2026-04-30 08:56 44.62081 20.34155 35331 ft 447 kts 180°
2026-04-30 08:57 44.55915 20.35116 35323 ft 447 kts 180°
2026-04-30 08:57 44.49707 20.36081 35309 ft 447 kts 180°
2026-04-30 08:58 44.43568 20.37034 35306 ft 446 kts 180°
2026-04-30 08:58 44.37349 20.37997 35304 ft 446 kts 180°
2026-04-30 08:59 44.31185 20.38950 35313 ft 445 kts 180°
2026-04-30 08:59 44.25039 20.39898 35309 ft 445 kts 180°
2026-04-30 09:00 44.18860 20.40848 35304 ft 445 kts 181°
2026-04-30 09:00 44.12747 20.41787 35306 ft 444 kts 181°
2026-04-30 09:01 44.06571 20.42734 35313 ft 444 kts 181°
2026-04-30 09:01 44.00428 20.43673 35311 ft 444 kts 181°
2026-04-30 09:02 43.91230 20.45075 35306 ft 444 kts 181°
2026-04-30 09:02 43.85089 20.46009 35307 ft 444 kts 181°
2026-04-30 09:03 43.78958 20.46942 35305 ft 443 kts 182°
2026-04-30 09:03 43.72815 20.47872 35314 ft 442 kts 182°
2026-04-30 09:04 43.66703 20.48796 35322 ft 442 kts 182°
2026-04-30 09:04 43.60592 20.49717 35319 ft 440 kts 182°
2026-04-30 09:05 43.54492 20.50635 35314 ft 441 kts 182°
2026-04-30 09:05 43.48404 20.51549 35316 ft 441 kts 183°
2026-04-30 09:06 43.42269 20.52470 35321 ft 440 kts 183°
2026-04-30 09:06 43.36187 20.53380 35319 ft 441 kts 183°
2026-04-30 09:07 43.30061 20.54294 35311 ft 442 kts 184°
2026-04-30 09:07 43.23955 20.55204 35307 ft 442 kts 184°
2026-04-30 09:08 43.17846 20.56113 35304 ft 441 kts 184°
2026-04-30 09:08 43.11729 20.57021 35298 ft 442 kts 184°
2026-04-30 09:09 43.05658 20.57920 35293 ft 441 kts 184°
2026-04-30 09:09 42.99536 20.59373 35263 ft 456 kts 170°
2026-04-30 09:10 42.93572 20.62487 35268 ft 460 kts 167°
2026-04-30 09:10 42.87646 20.65736 35264 ft 458 kts 167°
2026-04-30 09:11 42.81724 20.68916 35260 ft 458 kts 167°
2026-04-30 09:11 42.75738 20.72070 35252 ft 460 kts 167°
2026-04-30 09:12 42.69767 20.75197 35259 ft 461 kts 167°
2026-04-30 09:12 42.63777 20.78330 35267 ft 463 kts 167°
2026-04-30 09:13 42.57733 20.81487 35248 ft 464 kts 167°
2026-04-30 09:13 42.51683 20.84643 35258 ft 464 kts 167°
2026-04-30 09:14 42.45680 20.87766 35245 ft 464 kts 167°
2026-04-30 09:14 42.39639 20.90902 35249 ft 463 kts 167°
2026-04-30 09:15 42.33647 20.94006 35242 ft 464 kts 167°
2026-04-30 09:15 42.27600 20.97132 35242 ft 464 kts 167°
2026-04-30 09:16 42.21542 21.00259 35230 ft 463 kts 167°
2026-04-30 09:16 42.15566 21.03337 35207 ft 462 kts 167°
2026-04-30 09:17 42.09502 21.06124 35196 ft 449 kts 176°
2026-04-30 09:17 42.03404 21.07658 35193 ft 444 kts 179°
2026-04-30 09:18 41.97332 21.09072 35189 ft 443 kts 178°
2026-04-30 09:18 41.91265 21.10528 35173 ft 443 kts 178°
2026-04-30 09:19 41.85195 21.12020 35174 ft 442 kts 178°
2026-04-30 09:19 41.79154 21.13513 35155 ft 443 kts 178°
2026-04-30 09:20 41.73045 21.15019 35127 ft 446 kts 177°
2026-04-30 09:20 41.66968 21.16515 35124 ft 447 kts 177°
2026-04-30 09:21 41.60838 21.18023 35110 ft 446 kts 177°
2026-04-30 09:21 41.55734 21.19276 35102 ft 446 kts 177°
2026-04-30 09:22 41.49667 21.20763 35079 ft 442 kts 177°
2026-04-30 09:22 41.43605 21.22245 35111 ft 440 kts 177°
2026-04-30 09:23 41.37564 21.23716 35089 ft 439 kts 177°
2026-04-30 09:23 41.31526 21.25183 35089 ft 442 kts 176°
2026-04-30 09:24 41.25492 21.26647 35070 ft 444 kts 176°
2026-04-30 09:24 41.19396 21.28126 35083 ft 446 kts 176°
2026-04-30 09:25 41.13271 21.29609 35070 ft 447 kts 176°
2026-04-30 09:25 41.07150 21.31089 35059 ft 446 kts 176°
2026-04-30 09:26 41.01038 21.32564 35051 ft 445 kts 176°
2026-04-30 09:26 40.94961 21.34027 35064 ft 443 kts 176°
2026-04-30 09:27 40.88891 21.35406 35044 ft 437 kts 181°
2026-04-30 09:27 40.82962 21.35052 35055 ft 422 kts 195°
2026-04-30 09:28 40.77162 21.33837 35040 ft 421 kts 195°
2026-04-30 09:28 40.71361 21.32646 35032 ft 422 kts 195°
2026-04-30 09:29 40.65563 21.31504 35032 ft 421 kts 194°
2026-04-30 09:29 40.59761 21.30376 35032 ft 423 kts 194°
2026-04-30 09:30 40.53921 21.29242 35034 ft 424 kts 194°
2026-04-30 09:30 40.48098 21.28112 35024 ft 425 kts 194°
2026-04-30 09:31 40.42459 21.26070 35026 ft 414 kts 210°
2026-04-30 09:31 40.37265 21.22861 35018 ft 414 kts 211°
2026-04-30 09:32 40.32024 21.19587 35024 ft 415 kts 211°
2026-04-30 09:32 40.26796 21.16373 35029 ft 415 kts 210°
2026-04-30 09:33 40.21563 21.13187 35035 ft 415 kts 210°
2026-04-30 09:33 40.16320 21.10006 35029 ft 416 kts 210°
2026-04-30 09:34 40.11044 21.06811 35040 ft 416 kts 210°
2026-04-30 09:34 40.05810 21.03646 35041 ft 416 kts 210°
2026-04-30 09:35 40.00572 21.00484 35044 ft 415 kts 210°
2026-04-30 09:35 39.95322 20.97321 35064 ft 414 kts 210°
2026-04-30 09:36 39.90092 20.94174 35071 ft 413 kts 210°
2026-04-30 09:36 39.84881 20.91044 35082 ft 412 kts 210°
2026-04-30 09:37 39.79668 20.87916 35094 ft 412 kts 210°
2026-04-30 09:37 39.74455 20.84794 35099 ft 411 kts 210°
2026-04-30 09:38 39.69275 20.81704 35095 ft 411 kts 209°
2026-04-30 09:38 39.64029 20.78803 35094 ft 407 kts 207°
2026-04-30 09:39 39.58820 20.76014 35101 ft 404 kts 207°
2026-04-30 09:39 39.56209 20.74604 34974 ft 405 kts 208°
2026-04-30 09:39 39.53599 20.73187 34706 ft 402 kts 208°
2026-04-30 09:40 39.51026 20.71791 34305 ft 399 kts 208°
2026-04-30 09:40 39.48488 20.70415 33948 ft 395 kts 208°
2026-04-30 09:40 39.45975 20.69054 33591 ft 391 kts 208°
2026-04-30 09:40 39.43464 20.67694 33182 ft 387 kts 208°
2026-04-30 09:41 39.41006 20.66364 32841 ft 383 kts 208°
2026-04-30 09:41 39.38561 20.65042 32457 ft 381 kts 208°
2026-04-30 09:41 39.36105 20.63714 32093 ft 379 kts 208°
2026-04-30 09:41 39.33693 20.62411 31719 ft 377 kts 208°
2026-04-30 09:42 39.31276 20.61105 31370 ft 374 kts 208°
2026-04-30 09:42 39.28874 20.59810 31019 ft 373 kts 208°
2026-04-30 09:42 39.26490 20.58525 30654 ft 371 kts 208°
2026-04-30 09:42 39.24113 20.57245 30316 ft 370 kts 208°
2026-04-30 09:43 39.21748 20.55973 29935 ft 368 kts 208°
2026-04-30 09:43 39.19385 20.54703 29532 ft 366 kts 208°
2026-04-30 09:43 39.17043 20.53445 29136 ft 363 kts 208°
2026-04-30 09:43 39.14705 20.52191 28785 ft 360 kts 208°
2026-04-30 09:44 39.12422 20.50967 28411 ft 357 kts 208°
2026-04-30 09:44 39.10124 20.49735 28048 ft 354 kts 208°
2026-04-30 09:44 39.07857 20.48520 27685 ft 352 kts 208°
2026-04-30 09:44 39.05603 20.47313 27331 ft 349 kts 208°
2026-04-30 09:45 39.03361 20.46114 26913 ft 349 kts 208°
2026-04-30 09:45 39.01144 20.44931 26559 ft 347 kts 207°
2026-04-30 09:45 38.98895 20.43733 26198 ft 345 kts 207°
2026-04-30 09:45 38.96691 20.42560 25851 ft 343 kts 207°
2026-04-30 09:46 38.94501 20.41396 25514 ft 342 kts 207°
2026-04-30 09:46 38.92301 20.40227 25168 ft 340 kts 207°
2026-04-30 09:46 38.90115 20.39065 24826 ft 339 kts 207°
2026-04-30 09:46 38.87959 20.37921 24492 ft 337 kts 207°
2026-04-30 09:47 38.85805 20.36779 24155 ft 336 kts 207°
2026-04-30 09:47 38.83632 20.35627 23814 ft 335 kts 207°
2026-04-30 09:47 38.81471 20.34482 23426 ft 335 kts 207°
2026-04-30 09:47 38.79332 20.33350 23050 ft 333 kts 207°
2026-04-30 09:48 38.77203 20.32225 22700 ft 331 kts 207°
2026-04-30 09:48 38.75072 20.31099 22355 ft 329 kts 207°
2026-04-30 09:48 38.72979 20.29994 22025 ft 326 kts 207°
2026-04-30 09:48 38.70874 20.28882 21690 ft 324 kts 207°
2026-04-30 09:49 38.68813 20.27795 21361 ft 322 kts 207°
2026-04-30 09:49 38.66730 20.26697 21032 ft 320 kts 207°
2026-04-30 09:49 38.64670 20.25612 20711 ft 318 kts 207°
2026-04-30 09:49 38.62644 20.24545 20390 ft 316 kts 207°
2026-04-30 09:50 38.60624 20.23482 20074 ft 315 kts 207°
2026-04-30 09:50 38.58595 20.22415 19760 ft 313 kts 207°
2026-04-30 09:50 38.56607 20.21370 19448 ft 311 kts 207°
2026-04-30 09:50 38.54591 20.20311 19133 ft 310 kts 207°
2026-04-30 09:51 38.52594 20.19264 18818 ft 309 kts 207°
2026-04-30 09:51 38.50621 20.18228 18504 ft 308 kts 207°
2026-04-30 09:51 38.48644 20.17192 18161 ft 307 kts 207°
2026-04-30 09:51 38.46672 20.16158 17805 ft 306 kts 207°
2026-04-30 09:52 38.44711 20.15131 17467 ft 304 kts 207°
2026-04-30 09:52 38.42691 20.14217 17105 ft 308 kts 194°
2026-04-30 09:52 38.40532 20.14323 16807 ft 316 kts 169°
2026-04-30 09:52 38.38567 20.15502 16573 ft 318 kts 149°
2026-04-30 09:53 38.36764 20.17167 16274 ft 317 kts 146°
2026-04-30 09:53 38.35032 20.18873 15957 ft 317 kts 145°
2026-04-30 09:53 38.33277 20.20624 15637 ft 316 kts 145°
2026-04-30 09:53 38.31562 20.22330 15326 ft 316 kts 146°
2026-04-30 09:54 38.29836 20.24035 15014 ft 315 kts 146°
2026-04-30 09:54 38.28106 20.25733 14697 ft 314 kts 146°
2026-04-30 09:54 38.26366 20.27433 14379 ft 314 kts 146°
2026-04-30 09:54 38.25212 20.28556 14159 ft 314 kts 146°
2026-04-30 09:55 38.23461 20.30257 13837 ft 314 kts 146°
2026-04-30 09:55 38.21723 20.31942 13485 ft 314 kts 146°
2026-04-30 09:55 38.19990 20.33619 13159 ft 313 kts 146°
2026-04-30 09:55 38.18259 20.35293 12853 ft 312 kts 146°
2026-04-30 09:56 38.16530 20.36962 12522 ft 312 kts 146°
2026-04-30 09:56 38.14792 20.38639 12212 ft 312 kts 146°
2026-04-30 09:56 38.13081 20.40289 11880 ft 311 kts 145°
2026-04-30 09:56 38.11350 20.41957 11565 ft 309 kts 145°
2026-04-30 09:57 38.09658 20.43588 11262 ft 308 kts 145°
2026-04-30 09:57 38.07946 20.45235 10945 ft 306 kts 145°
2026-04-30 09:57 38.06257 20.46860 10618 ft 305 kts 145°
2026-04-30 09:57 38.04564 20.48488 10308 ft 303 kts 145°
2026-04-30 09:58 38.02905 20.50082 10141 ft 297 kts 145°
2026-04-30 09:58 38.01256 20.51666 9846 ft 295 kts 145°
2026-04-30 09:58 37.99634 20.53222 9530 ft 294 kts 145°
2026-04-30 09:58 37.97995 20.54794 9228 ft 292 kts 144°
2026-04-30 09:59 37.94791 20.57864 8644 ft 288 kts 144°
2026-04-30 09:59 37.91595 20.60923 8001 ft 287 kts 144°
2026-04-30 10:00 37.88426 20.63953 7413 ft 284 kts 144°
2026-04-30 10:00 37.86828 20.65480 7125 ft 285 kts 144°
2026-04-30 10:01 37.83677 20.68488 6553 ft 285 kts 144°
2026-04-30 10:01 37.82093 20.69996 6244 ft 287 kts 144°
2026-04-30 10:01 37.80485 20.71524 5941 ft 289 kts 145°
2026-04-30 10:02 37.77307 20.74558 5338 ft 280 kts 143°
2026-04-30 10:02 37.75771 20.76032 5059 ft 274 kts 144°
2026-04-30 10:02 37.74277 20.77446 4863 ft 263 kts 144°
2026-04-30 10:02 37.72863 20.78797 4761 ft 249 kts 144°
2026-04-30 10:03 37.71502 20.80086 4663 ft 234 kts 144°
2026-04-30 10:03 37.70255 20.81275 4573 ft 218 kts 144°
2026-04-30 10:03 37.69078 20.82391 4489 ft 203 kts 145°
2026-04-30 10:03 37.67968 20.83444 4382 ft 199 kts 143°
2026-04-30 10:04 37.66862 20.84510 4196 ft 199 kts 144°
2026-04-30 10:04 37.65771 20.85572 4017 ft 200 kts 144°
2026-04-30 10:04 37.64628 20.86642 3764 ft 202 kts 144°
2026-04-30 10:04 37.63526 20.87675 3554 ft 193 kts 144°
2026-04-30 10:05 37.62478 20.88660 3359 ft 185 kts 144°
2026-04-30 10:05 37.61600 20.89766 3127 ft 178 kts 114°
2026-04-30 10:05 37.61541 20.91243 2961 ft 170 kts 69°
2026-04-30 10:05 37.62304 20.92364 2637 ft 171 kts 25°
2026-04-30 10:06 37.63449 20.92539 2302 ft 167 kts 339°
2026-04-30 10:06 37.64546 20.92122 2051 ft 167 kts 344°
2026-04-30 10:06 37.65704 20.91805 1713 ft 171 kts 346°
2026-04-30 10:06 37.66838 20.91458 1507 ft 160 kts 343°
2026-04-30 10:07 37.67865 20.91082 1368 ft 147 kts 342°
2026-04-30 10:07 37.68828 20.90736 1140 ft 141 kts 342°
2026-04-30 10:07 37.69735 20.90403 1017 ft 136 kts 342°
2026-04-30 10:07 37.70637 20.90044 839 ft 136 kts 341°
2026-04-30 10:08 37.71551 20.89696 645 ft 138 kts 345°
2026-04-30 10:08 37.72477 20.89381 471 ft 136 kts 345°
2026-04-30 10:08 37.73398 20.89046 305 ft 142 kts 345°
2026-04-30 10:08 37.74351 20.88703 51 ft 137 kts 345°
2026-04-30 10:09 37.75131 20.88411 18 ft 76 kts 343°
2026-04-30 10:09 37.75415 20.88305 20 ft 12 kts 343°
2026-04-30 10:09 37.75464 20.88302 20 ft 6 kts 29°
2026-04-30 10:09 37.75472 20.88369 22 ft 11 kts 102°
2026-04-30 10:10 37.75424 20.88422 20 ft 5 kts 163°
2026-04-30 10:10 37.75395 20.88443 19 ft 5 kts 118°
2026-04-30 10:10 37.75401 20.88489 19 ft 5 kts 71°
2026-04-30 10:10 37.75408 20.88519 19 ft 1 kts 74°
2026-04-30 10:11 37.75409 20.88521 19 ft 0 kts 74°